Weather History for Fayetteville, NC

Change the Weather History Date:

Tuesday, January 1, 2013

  Actual Average Record
Temperature  
Mean Temperature 51 °F 43 °F  
Max Temperature 55 °F 52 °F 77 °F (1974)
Min Temperature 46 °F 33 °F 9 °F (1918)
Degree Days  
Heating Degree Days 14 22  
Month to date heating degree days 14 22  
Since 1 July heating degree days 1017 1081  
Cooling Degree Days 0 0  
Month to date cooling degree days 0 0  
Year to date cooling degree days 0 0  
Growing Degree Days 2 (Base 50)    
Moisture  
Dew Point 48 °F    
Average Humidity 86    
Maximum Humidity 100    
Minimum Humidity 71    
Precipitation  
Precipitation 0.18 in 0.09 in 1.22 in (1925)
Month to date precipitation 0.18 0.09  
Year to date precipitation 0.18 0.09  
Sea Level Pressure  
Sea Level Pressure 30.01 in    
Wind  
Wind Speed 8 mph (SW)    
Max Wind Speed 17 mph    
Max Gust Speed 24 mph    
Visibility 7 miles    
Events Fog , Rain    
T = Trace of Precipitation, MM = Missing Value Source: NWS Daily Summary

Daily Weather History Graph

Daily Weather History Graph

Search for Another Location

Airport:

Trip Planner

Search our weather history database for the weather conditions in past years. The results will help you decide how hot, cold, wet, or windy it might be!

Date:

Astronomy

Jan. 01, 2013 Rise Set
Actual Time 7:23 AM EST 5:15 PM EST
Civil Twilight 6:55 AM EST 5:43 PM EST
Nautical Twilight 6:23 AM EST 6:14 PM EST
Astronomical Twilight 5:53 AM EST 6:45 PM EST
Moon 9:33 PM EST (1/1) 9:44 AM EST (1/1)
Length of Visible Light 10h 47m
Length of Day
9h 51m
Waning Gibbous, 83% of the Moon is Illuminated
Jan 1
Waning Gibbous
Jan 4
Last Quarter
Jan 11
New
Jan 18
First Quarter
Jan 26
Full

Hourly Weather History & Observations

Time (EST) Temp. Dew Point Humidity Pressure Visibility Wind Dir Wind Speed Gust Speed Precip Events Conditions
12:53 AM 48.0 °F 39.9 °F 74% 30.10 in 10.0 mi SSW 6.9 mph - N/A   Clear
1:53 AM 48.9 °F 41.0 °F 74% 30.08 in 10.0 mi SSW 9.2 mph - N/A   Scattered Clouds
2:53 AM 48.9 °F 41.0 °F 74% 30.06 in 10.0 mi SSW 5.8 mph - N/A   Mostly Cloudy
3:53 AM 50.0 °F 42.1 °F 74% 30.06 in 10.0 mi SW 5.8 mph - N/A   Overcast
4:53 AM 51.1 °F 43.0 °F 74% 30.06 in 10.0 mi WSW 6.9 mph - N/A   Overcast
5:53 AM 51.1 °F 43.0 °F 74% 30.05 in 10.0 mi SW 8.1 mph - N/A   Overcast
6:53 AM 51.1 °F 43.0 °F 74% 30.07 in 10.0 mi SW 6.9 mph - N/A   Overcast
7:53 AM 51.1 °F 43.0 °F 74% 30.09 in 10.0 mi SSW 6.9 mph - N/A   Overcast
8:53 AM 52.0 °F 44.1 °F 74% 30.09 in 10.0 mi SSW 8.1 mph - N/A   Overcast
9:53 AM 53.1 °F 44.1 °F 71% 30.11 in 10.0 mi SW 6.9 mph - N/A   Overcast
10:53 AM 53.1 °F 44.1 °F 71% 30.10 in 10.0 mi SSW 8.1 mph - N/A   Overcast
11:53 AM 53.1 °F 45.0 °F 74% 30.05 in 10.0 mi SW 8.1 mph - N/A   Overcast
12:53 PM 52.0 °F 46.9 °F 83% 30.02 in 8.0 mi SW 11.5 mph - 0.00 in Rain Light Rain
1:53 PM 54.0 °F 50.0 °F 86% 29.97 in 10.0 mi SW 16.1 mph 24.2 mph 0.00 in   Overcast
2:29 PM 55.4 °F 51.8 °F 88% 29.99 in 10.0 mi SW 12.7 mph - N/A   Overcast
2:30 PM 55.4 °F 51.8 °F 88% 29.99 in 10.0 mi SW 12.7 mph - N/A   Overcast
2:53 PM 55.0 °F 51.1 °F 86% 29.98 in 10.0 mi WSW 13.8 mph - N/A   Overcast
3:44 PM 53.6 °F 51.8 °F 94% 29.99 in 10.0 mi SW 11.5 mph - 0.00 in   Overcast
3:53 PM 54.0 °F 51.1 °F 90% 29.98 in 10.0 mi SW 9.2 mph - 0.00 in   Overcast
4:53 PM 53.1 °F 50.0 °F 89% 29.97 in 9.0 mi SW 10.4 mph - 0.01 in   Overcast
5:53 PM 52.0 °F 51.1 °F 97% 29.99 in 5.0 mi SW 10.4 mph - 0.02 in Rain Light Rain
6:22 PM 51.8 °F 51.8 °F 100% 30.02 in 6.0 mi WSW 10.4 mph - 0.01 in Rain Light Rain
6:48 PM 51.8 °F 51.8 °F 100% 30.01 in 4.0 mi SW 9.2 mph - 0.04 in Rain Light Rain
6:53 PM 52.0 °F 51.1 °F 97% 30.00 in 5.0 mi SW 9.2 mph - 0.05 in Rain Light Rain
7:53 PM 52.0 °F 51.1 °F 97% 29.99 in 4.0 mi SW 8.1 mph - 0.04 in Rain Light Rain
8:00 PM 51.8 °F 51.8 °F 100% 30.00 in 3.0 mi SW 8.1 mph - 0.01 in Rain Light Rain
8:08 PM 51.8 °F 51.8 °F 100% 29.99 in 2.5 mi SSW 8.1 mph - 0.02 in Rain Light Rain
8:17 PM 51.8 °F 51.8 °F 100% 29.99 in 3.0 mi SW 8.1 mph - 0.02 in Rain Light Rain
8:53 PM 52.0 °F 51.1 °F 97% 29.97 in 4.0 mi SSW 6.9 mph - 0.02 in   Overcast
9:53 PM 52.0 °F 51.1 °F 97% 29.96 in 3.0 mi SSW 4.6 mph - 0.00 in Rain Light Rain
10:02 PM 51.8 °F 51.8 °F 100% 29.98 in 2.5 mi SSW 4.6 mph - 0.01 in Rain Light Rain
10:31 PM 51.8 °F 51.8 °F 100% 29.96 in 1.8 mi Calm Calm - 0.02 in   Overcast
10:53 PM 52.0 °F 51.1 °F 97% 29.96 in 1.5 mi Calm Calm - 0.03 in Rain Light Rain
11:00 PM 51.8 °F 51.8 °F 100% 29.96 in 1.5 mi Calm Calm - 0.00 in   Overcast
11:19 PM 51.8 °F 51.8 °F 100% 29.95 in 0.5 mi Calm Calm - 0.00 in Fog , Rain Light Rain
11:49 PM 51.8 °F 51.8 °F 100% 29.95 in 0.2 mi North 3.5 mph - 0.01 in Fog Fog
11:53 PM 52.0 °F 51.1 °F 97% 29.94 in 0.5 mi North 4.6 mph - 0.01 in Fog Fog